AMU622 VMMC-RCTP

Flight info

Callsign AMU622
Flight time 0h 42m
Altitude 320000
Route TONGA
Aircraft A319/M-VGDW/C

Departure

Time 2026-04-16 13:59
Airport Macau International Airport (VMMC)

Arrival

Time 2026-04-16 14:42
Airport Taiwan Taoyuan International Airport (RCTP)
Time Latitude Longitude Altitude Speed Heading
2026-04-16 13:46 22.16147 113.57683 29 ft 0 kts 285°
2026-04-16 13:47 22.16145 113.57693 29 ft 3 kts 285°
2026-04-16 13:47 22.16139 113.57714 29 ft 3 kts 285°
2026-04-16 13:48 22.16134 113.57735 29 ft 3 kts 285°
2026-04-16 13:48 22.16129 113.57757 29 ft 3 kts 285°
2026-04-16 13:48 22.16123 113.57778 29 ft 3 kts 285°
2026-04-16 13:48 22.16118 113.57799 29 ft 3 kts 282°
2026-04-16 13:49 22.16115 113.57820 29 ft 3 kts 275°
2026-04-16 13:49 22.16114 113.57842 29 ft 3 kts 263°
2026-04-16 13:49 22.16117 113.57857 29 ft 1 kts 250°
2026-04-16 13:49 22.16117 113.57858 29 ft 0 kts 250°
2026-04-16 13:51 22.16114 113.57848 29 ft 3 kts 250°
2026-04-16 13:51 22.16093 113.57790 29 ft 12 kts 246°
2026-04-16 13:51 22.16014 113.57743 29 ft 15 kts 194°
2026-04-16 13:52 22.15895 113.57710 29 ft 19 kts 194°
2026-04-16 13:52 22.15761 113.57669 29 ft 21 kts 201°
2026-04-16 13:52 22.15644 113.57598 29 ft 15 kts 193°
2026-04-16 13:52 22.15568 113.57676 29 ft 17 kts 122°
2026-04-16 13:53 22.15488 113.57806 29 ft 23 kts 123°
2026-04-16 13:53 22.15396 113.57956 29 ft 25 kts 124°
2026-04-16 13:53 22.15295 113.58116 29 ft 27 kts 124°
2026-04-16 13:53 22.15188 113.58286 29 ft 28 kts 123°
2026-04-16 13:54 22.15076 113.58468 29 ft 30 kts 123°
2026-04-16 13:54 22.14958 113.58659 29 ft 32 kts 124°
2026-04-16 13:54 22.14838 113.58852 29 ft 26 kts 124°
2026-04-16 13:54 22.14747 113.59000 29 ft 20 kts 123°
2026-04-16 13:55 22.14647 113.59065 29 ft 18 kts 161°
2026-04-16 13:55 22.14571 113.59139 29 ft 16 kts 83°
2026-04-16 13:55 22.14620 113.59242 29 ft 15 kts 39°
2026-04-16 13:55 22.14724 113.59227 28 ft 17 kts 341°
2026-04-16 13:56 22.14852 113.59179 29 ft 22 kts 340°
2026-04-16 13:56 22.15007 113.59118 29 ft 27 kts 340°
2026-04-16 13:56 22.15203 113.59049 30 ft 32 kts 342°
2026-04-16 13:56 22.15438 113.58965 28 ft 39 kts 340°
2026-04-16 13:57 22.15705 113.58864 28 ft 42 kts 341°
2026-04-16 13:57 22.15972 113.58768 31 ft 40 kts 341°
2026-04-16 13:57 22.16131 113.58713 30 ft 12 kts 358°
2026-04-16 13:58 22.16123 113.58707 30 ft 7 kts 157°
2026-04-16 13:58 22.16108 113.58712 30 ft 0 kts 163°
2026-04-16 13:58 22.16085 113.58720 31 ft 17 kts 163°
2026-04-16 13:58 22.15755 113.58840 28 ft 83 kts 161°
2026-04-16 13:59 22.15011 113.59117 30 ft 142 kts 161°
2026-04-16 13:59 22.13929 113.59517 244 ft 172 kts 162°
2026-04-16 13:59 22.12814 113.59939 962 ft 168 kts 162°
2026-04-16 13:59 22.11718 113.60357 1599 ft 166 kts 162°
2026-04-16 14:00 22.10632 113.60769 2073 ft 165 kts 163°
2026-04-16 14:00 22.09548 113.61181 2525 ft 165 kts 163°
2026-04-16 14:00 22.08463 113.61591 2985 ft 165 kts 162°
2026-04-16 14:00 22.07365 113.62006 3374 ft 172 kts 162°
2026-04-16 14:01 22.06182 113.62448 3562 ft 190 kts 163°
2026-04-16 14:01 22.04867 113.62938 3715 ft 213 kts 163°
2026-04-16 14:01 22.03371 113.63496 3983 ft 241 kts 162°
2026-04-16 14:01 22.01736 113.64109 4447 ft 261 kts 162°
2026-04-16 14:02 21.99994 113.64760 5210 ft 268 kts 162°
2026-04-16 14:02 21.98217 113.65426 6006 ft 272 kts 162°
2026-04-16 14:02 21.95387 113.66471 7237 ft 278 kts 163°
2026-04-16 14:02 21.91663 113.67811 8671 ft 286 kts 163°
2026-04-16 14:03 21.87825 113.69187 9983 ft 295 kts 162°
2026-04-16 14:03 21.83706 113.70665 10506 ft 332 kts 162°
2026-04-16 14:03 21.79124 113.72311 11229 ft 355 kts 162°
2026-04-16 14:03 21.74393 113.74008 12427 ft 362 kts 162°
2026-04-16 14:04 21.69628 113.75726 13610 ft 369 kts 162°
2026-04-16 14:04 21.64711 113.77507 14752 ft 376 kts 162°
2026-04-16 14:04 21.60382 113.80715 15790 ft 389 kts 131°
2026-04-16 14:04 21.58202 113.86055 16741 ft 402 kts 98°
2026-04-16 14:05 21.57971 113.92127 17658 ft 410 kts 92°
2026-04-16 14:05 21.57752 113.98321 18562 ft 418 kts 93°
2026-04-16 14:05 21.57526 114.04546 19436 ft 425 kts 93°
2026-04-16 14:05 21.57296 114.10930 20333 ft 431 kts 93°
2026-04-16 14:06 21.57057 114.17428 21188 ft 437 kts 93°
2026-04-16 14:06 21.56811 114.24009 21950 ft 443 kts 93°
2026-04-16 14:06 21.56557 114.30662 22665 ft 449 kts 93°
2026-04-16 14:06 21.56301 114.37419 23330 ft 454 kts 93°
2026-04-16 14:07 21.56044 114.44244 24001 ft 459 kts 93°
2026-04-16 14:07 21.55778 114.51042 24612 ft 463 kts 93°
2026-04-16 14:07 21.55497 114.58007 25204 ft 468 kts 94°
2026-04-16 14:07 21.55222 114.65038 25784 ft 473 kts 93°
2026-04-16 14:08 21.54948 114.72090 26341 ft 476 kts 94°
2026-04-16 14:08 21.54656 114.79237 26877 ft 480 kts 94°
2026-04-16 14:08 21.54358 114.86445 27398 ft 485 kts 94°
2026-04-16 14:08 21.54053 114.93718 27918 ft 489 kts 94°
2026-04-16 14:09 21.53749 115.00944 28412 ft 492 kts 94°
2026-04-16 14:09 21.53442 115.08335 28904 ft 496 kts 94°
2026-04-16 14:09 21.53366 115.15764 29349 ft 501 kts 84°
2026-04-16 14:09 21.54334 115.23194 29809 ft 504 kts 82°
2026-04-16 14:10 21.55287 115.30682 30236 ft 508 kts 82°
2026-04-16 14:10 21.56229 115.38236 30690 ft 510 kts 83°
2026-04-16 14:10 21.57172 115.45779 31318 ft 509 kts 82°
2026-04-16 14:10 21.58121 115.53323 31885 ft 508 kts 82°
2026-04-16 14:11 21.59071 115.60834 32483 ft 507 kts 82°
2026-04-16 14:11 21.60019 115.68346 32978 ft 508 kts 82°
2026-04-16 14:11 21.61872 115.83174 33002 ft 501 kts 82°
2026-04-16 14:12 21.63706 115.98097 33005 ft 501 kts 83°
2026-04-16 14:12 21.65489 116.12554 33005 ft 501 kts 83°
2026-04-16 14:13 21.67302 116.27451 33008 ft 501 kts 83°
2026-04-16 14:13 21.69082 116.42290 32995 ft 500 kts 83°
2026-04-16 14:14 21.70851 116.57025 32985 ft 499 kts 83°
2026-04-16 14:14 21.72618 116.71821 32985 ft 498 kts 83°
2026-04-16 14:15 21.76194 116.86124 33002 ft 496 kts 68°
2026-04-16 14:15 21.81201 116.99984 33005 ft 496 kts 68°
2026-04-16 14:16 21.86197 117.13849 33003 ft 495 kts 68°
2026-04-16 14:16 21.91172 117.27657 32999 ft 494 kts 68°
2026-04-16 14:17 21.96085 117.41406 33002 ft 494 kts 68°
2026-04-16 14:17 22.01874 117.54772 33002 ft 492 kts 57°
2026-04-16 14:18 22.09047 117.67332 32995 ft 492 kts 57°
2026-04-16 14:18 22.16133 117.79895 32996 ft 492 kts 57°
2026-04-16 14:19 22.23293 117.92572 33007 ft 493 kts 57°
2026-04-16 14:19 22.30459 118.05184 33011 ft 492 kts 56°
2026-04-16 14:20 22.37757 118.17611 33018 ft 492 kts 56°
2026-04-16 14:20 22.44996 118.30218 33025 ft 493 kts 57°
2026-04-16 14:21 22.52111 118.42865 33023 ft 493 kts 57°
2026-04-16 14:21 22.59284 118.55540 33040 ft 493 kts 57°
2026-04-16 14:22 22.66508 118.68189 33029 ft 494 kts 57°
2026-04-16 14:22 22.73667 118.80782 33027 ft 494 kts 57°
2026-04-16 14:23 22.80859 118.93482 33029 ft 494 kts 57°
2026-04-16 14:23 22.88036 119.06223 33035 ft 494 kts 57°
2026-04-16 14:24 22.95242 119.18961 33035 ft 495 kts 57°
2026-04-16 14:24 23.02345 119.31638 33047 ft 494 kts 57°
2026-04-16 14:25 23.09521 119.44407 33040 ft 494 kts 57°
2026-04-16 14:25 23.16919 119.57017 33035 ft 492 kts 46°
2026-04-16 14:26 23.21989 119.61790 33040 ft 484 kts 28°
2026-04-16 14:26 23.27817 119.65429 33043 ft 483 kts 26°
2026-04-16 14:26 23.37534 119.71533 33040 ft 484 kts 26°
2026-04-16 14:27 23.49204 119.78921 33042 ft 485 kts 27°
2026-04-16 14:27 23.60421 119.86669 33043 ft 487 kts 29°
2026-04-16 14:28 23.71798 119.94598 32677 ft 489 kts 28°
2026-04-16 14:28 23.77556 119.98550 32184 ft 488 kts 28°
2026-04-16 14:28 23.83333 120.02513 31010 ft 494 kts 28°
2026-04-16 14:29 23.89116 120.06508 29765 ft 490 kts 28°
2026-04-16 14:29 23.94842 120.10490 28511 ft 483 kts 29°
2026-04-16 14:29 24.00501 120.14422 27212 ft 476 kts 29°
2026-04-16 14:29 24.05997 120.18234 25950 ft 469 kts 29°
2026-04-16 14:30 24.11463 120.22035 24752 ft 460 kts 30°
2026-04-16 14:30 24.16801 120.25756 23606 ft 450 kts 30°
2026-04-16 14:30 24.22031 120.29401 22536 ft 439 kts 30°
2026-04-16 14:30 24.27131 120.32949 21543 ft 429 kts 30°
2026-04-16 14:31 24.32113 120.36417 20576 ft 420 kts 29°
2026-04-16 14:31 24.37008 120.39830 19576 ft 412 kts 29°
2026-04-16 14:31 24.41806 120.43188 18549 ft 404 kts 29°
2026-04-16 14:31 24.46494 120.46478 17511 ft 396 kts 29°
2026-04-16 14:32 24.51036 120.49666 16463 ft 389 kts 29°
2026-04-16 14:32 24.55542 120.52827 15398 ft 381 kts 29°
2026-04-16 14:32 24.59994 120.55947 14349 ft 374 kts 29°
2026-04-16 14:32 24.64348 120.59002 13302 ft 367 kts 30°
2026-04-16 14:33 24.68492 120.62203 12263 ft 363 kts 40°
2026-04-16 14:33 24.72216 120.65881 11222 ft 357 kts 40°
2026-04-16 14:33 24.75873 120.69467 10416 ft 344 kts 40°
2026-04-16 14:33 24.79308 120.72839 10176 ft 318 kts 40°
2026-04-16 14:34 24.82489 120.75973 9856 ft 307 kts 40°
2026-04-16 14:34 24.85746 120.79179 9043 ft 312 kts 41°
2026-04-16 14:34 24.88906 120.82295 8341 ft 300 kts 41°
2026-04-16 14:34 24.92246 120.84959 7666 ft 294 kts 22°
2026-04-16 14:35 24.96034 120.85282 7381 ft 267 kts 334°
2026-04-16 14:35 24.98536 120.82627 7083 ft 244 kts 288°
2026-04-16 14:35 24.97988 120.79202 6465 ft 237 kts 228°
2026-04-16 14:35 24.95020 120.77924 5878 ft 240 kts 174°
2026-04-16 14:36 24.92365 120.79925 5367 ft 245 kts 117°
2026-04-16 14:36 24.91954 120.83626 4875 ft 246 kts 91°
2026-04-16 14:36 24.91855 120.87381 4371 ft 243 kts 93°
2026-04-16 14:36 24.91661 120.91064 3988 ft 238 kts 94°
2026-04-16 14:37 24.91464 120.94578 3991 ft 226 kts 94°
2026-04-16 14:37 24.91278 120.98056 3989 ft 227 kts 94°
2026-04-16 14:37 24.91102 121.01473 3989 ft 226 kts 93°
2026-04-16 14:37 24.92060 121.04580 3992 ft 206 kts 50°
2026-04-16 14:38 24.93961 121.06980 3707 ft 207 kts 49°
2026-04-16 14:38 24.95839 121.09358 3169 ft 204 kts 50°
2026-04-16 14:38 24.97684 121.11695 2719 ft 195 kts 50°
2026-04-16 14:38 24.99155 121.13557 2182 ft 193 kts 50°
2026-04-16 14:39 25.00018 121.14652 1938 ft 185 kts 50°
2026-04-16 14:39 25.00835 121.15688 1706 ft 173 kts 49°
2026-04-16 14:39 25.01583 121.16636 1502 ft 156 kts 49°
2026-04-16 14:39 25.02256 121.17490 1296 ft 141 kts 48°
2026-04-16 14:40 25.02882 121.18284 1114 ft 135 kts 48°
2026-04-16 14:40 25.03491 121.19058 940 ft 133 kts 48°
2026-04-16 14:40 25.04095 121.19824 768 ft 132 kts 48°
2026-04-16 14:40 25.04695 121.20585 590 ft 132 kts 48°
2026-04-16 14:41 25.05293 121.21347 410 ft 131 kts 48°
2026-04-16 14:41 25.05890 121.22107 226 ft 131 kts 49°
2026-04-16 14:41 25.06477 121.22852 97 ft 118 kts 49°
2026-04-16 14:41 25.06926 121.23424 96 ft 74 kts 49°
2026-04-16 14:42 25.07211 121.23784 92 ft 62 kts 49°
2026-04-16 14:42 25.07432 121.24062 92 ft 32 kts 48°
2026-04-16 14:42 25.07622 121.24201 95 ft 34 kts 19°
2026-04-16 14:42 25.07774 121.24257 99 ft 20 kts 18°
2026-04-16 14:43 25.07880 121.24274 100 ft 15 kts 327°
2026-04-16 14:43 25.07956 121.24198 100 ft 15 kts 319°
2026-04-16 14:43 25.08034 121.24188 99 ft 13 kts 41°
2026-04-16 14:43 25.08089 121.24259 101 ft 10 kts 32°
2026-04-16 14:44 25.08150 121.24222 100 ft 12 kts 318°
2026-04-16 14:44 25.08198 121.24175 101 ft 5 kts 312°
2026-04-16 14:44 25.08191 121.24140 101 ft 3 kts 251°
2026-04-16 14:44 25.08188 121.24127 101 ft 0 kts 252°